Location: *
(28.3744°N, 81.5492°W)
Time: 02:58:44
(UTC+00:00)

CZ-2D R/B - Pass Details

Date: 15 June 2025
Orbit: 789 x 842 km, 98.8° (Epoch: 11 July)

Event Time Altitude Azimuth Distance (km) Brightness Sun altitude
Rises 07:06:11 0° 23° (NNE) 3,360 6.4 -33.0°
Reaches altitude 10° 07:08:42 10° 31° (NNE) 2,416 5.4 -32.8°
Enters shadow 07:13:01 38° 82° (E) 1,231 3.2 -32.3°
